Location: Chesterfield School
(38.6556°N, 90.5879°W)
Time: 06:00:15
(UTC+00:00)

Daily predictions for brighter satellites

Satellite Brightness Start Highest point End
(mag) Time Altitude Azimuth Time Altitude Azimuth Time Altitude Azimuth
CBERS-1 4.1 12:00:07 10° NNE 12:05:14 85° ESE 12:10:19 10° SSW
IRIDIUM 103 4.3 12:03:21 10° S 12:08:35 84° W 12:13:49 10° N
ATLAS CENTAUR Rocket 4.3 12:05:54 10° WSW 12:10:57 44° SSE 12:31:50 10° E
OAO 3 Rocket 4.4 12:10:28 10° SW 12:14:48 39° SSE 12:19:13 10° E
NOSS 3-1 (A) 4.2 12:07:24 10° NW 12:15:01 86° WSW 12:24:18 10° SSE
BREEZE M DEB (TANK) 2.2 12:13:39 18° W 12:15:05 37° NNW 12:18:30 10° NE
Cosmos 2278 3.9 12:12:34 10° NNW 12:18:00 50° WSW 12:23:24 10° S
Cosmos 1626 Rocket 3.7 12:17:02 10° SSW 12:21:19 49° W 12:25:36 10° N
CORIOLIS 4.4 12:16:35 10° NNE 12:21:59 78° ESE 12:27:23 10° S
Thor Agena Rocket 3.5 12:19:08 10° NNE 12:24:12 87° ESE 12:29:13 10° SSW
Cosmos 158 Rocket 4.2 12:19:32 10° SW 12:24:42 49° WNW 12:29:48 10° N
Cosmos 2285 Rocket 4.1 12:19:45 10° NNW 12:26:10 84° WSW 12:32:35 10° SSE
IRIDIUM 106 4.4 12:21:49 10° SSW 12:26:55 56° W 12:32:03 10° N
COSMO-SKYMED 1 3.7 12:26:28 10° SSW 12:29:40 22° W 12:32:54 10° NW
Cosmos-2242 3.9 12:27:54 10° NNW 12:31:27 27° W 12:34:57 10° SSW
SMAP 3.0 12:31:54 10° N 12:36:33 73° WNW 12:41:11 10° SSW
Landsat 7 3.7 12:37:05 10° N 12:41:46 81° WNW 12:46:24 10° SSW
Cosmos 1602 Rocket 3.8 23:04:40 10° N 23:08:53 45° E 23:13:01 10° SSE
Meteor 1-28 Rocket 3.4 23:06:56 10° N 23:10:14 61° WNW 23:13:30 10° SSW
NOSS 2-3 (E) 3.8 23:07:52 10° S 23:11:25 39° ESE 23:14:52 10° NE
BREEZE-M DEB (TANK) 3.8 23:05:09 10° SW 23:12:05 44° SSE 23:14:54 10° ENE
NOSS 2-3 (D) 3.9 23:09:02 10° S 23:12:35 37° ESE 23:16:00 10° NE
Cosmos 2208 Rocket 4.0 23:07:49 10° NNW 23:13:00 80° ENE 23:18:12 10° SSE
BlueWalker 3 1.7 23:10:35 10° NW 23:14:13 78° NE 23:17:49 10° SE
Cosmos 2297 Rocket 2.2 23:09:13 10° NNW 23:14:50 61° ENE 23:20:25 10° SE
Cosmos 1484 Rocket 3.3 23:13:45 10° S 23:17:12 56° W 23:20:40 10° NNW
CBERS-1 4.3 23:13:34 10° S 23:18:40 77° WSW 23:23:48 10° NNW
BREEZE M DEB (TANK) 3.6 23:25:57 10° W 23:28:19 23° NNW 23:30:02 10° NNE
Cosmos 1933 3.2 23:26:09 10° S 23:29:55 63° E 23:33:43 10° NNE
Cosmos 2151 2.9 23:28:48 10° N 23:32:58 85° E 23:37:08 10° S
ATLAS CENTAUR R/B 1.3 23:31:12 10° NW 23:34:20 57° WSW 23:37:20 10° SSE
Radarsat 4.5 23:29:12 10° SSE 23:34:21 78° ENE 23:39:33 10° N
Cosmos 1980 Rocket 2.8 23:29:51 10° S 23:35:01 38° ESE 23:40:10 10° NE
SJ-12 3.8 23:31:22 10° SSE 23:35:02 54° ENE 23:38:44 10° N
USA 290 2.4 23:33:25 10° NNW 23:36:40 77° WSW 23:39:53 10° SSE
SMAP 3.1 23:33:22 10° SSE 23:38:01 85° WSW 23:42:41 10° NNW
Cosmos 1461 4.3 23:34:57 10° WSW 23:38:25 31° NW 23:41:57 10° NNE
UNK 4.3 23:34:13 10° N 23:38:43 59° WNW 23:43:10 10° SSW
Thor Agena Rocket 3.9 23:33:52 10° S 23:39:04 70° WSW 23:44:14 10° NNW
Meteor 1-25 Rocket 4.3 23:33:56 10° N 23:39:42 64° E 23:45:23 10° SSE
Cosmos 1825 Rocket 3.6 23:38:03 10° N 23:42:17 51° E 23:46:28 10° SSE
Meteor 1-5 Rocket 4.5 23:37:18 10° N 23:42:22 41° ENE 23:47:33 10° SSE
NOSS 3-2 (C) 4.1 23:37:53 10° WSW 23:42:32 41° NW 23:48:00 10° NNE
Landsat 7 3.7 23:38:25 10° SSE 23:43:04 83° ENE 23:47:44 10° N
CORIOLIS 4.4 23:38:08 10° S 23:43:26 74° WSW 23:48:47 10° NNW
CZ-2D R/B 2.6 23:41:32 10° SSE 23:44:39 78° ENE 23:47:47 10° N
Cosmos 1655 Rocket 4.2 23:40:57 10° N 23:46:56 47° ENE 23:52:53 10° SSE
Cosmos 2263 Rocket 2.9 23:45:59 10° N 23:50:55 30° ENE 23:55:51 10° ESE
Cosmos 1354 Rocket 4.4 23:47:16 10° SSW 23:52:29 64° WNW 23:57:43 10° NNE
H-II Stage 2 4.5 23:40:34 10° W 23:53:14 30° SSW 23:56:57 10° SSE
Cosmos 2084 Rocket 3.3 23:49:48 10° NNW 23:54:00 66° NE 23:58:10 10° SE
